Tracking 17141 objects as of 6-July-2015
HD Live streaming from Space Station

NFIRE

Track NFIRE now!
10-day predictions
NFIRE is classified as:


NORAD ID: 31140
Int'l Code: 2007-014A
Perigee: 424.6 km
Apogee: 443.8 km
Inclination: 48.2 °
Period: 93.1 minutes
Semi major axis: 6805 km
RCS: 1.0597 m2 (large)
Launch date: April 24, 2007
Source: United States (US)

NFIRE is a data-gathering research satellite for the U.S. missile defense program.
Your satellite tracking list
Your tracking list is empty





NASA's NSSDC Master Catalog

Two Line Element Set (TLE):
1 31140U 07014A   15186.52483244  .00013733  00000-0  27845-3 0  9990
2 31140 048.2178 354.9092 0014125 284.4431 117.3056 15.46460842464717

Source of the keplerian elements: AFSPC

N2YO: 235